This is the latest recevied weather packets stored in our database for station/object CE3SUR-16. If no packets are shown the sender has not sent any weather packets the latest 10 day(s).
| Time | Temp. | Humidity | Pressure | Rain* | Wind** | Luminosity | Snow |
|---|---|---|---|---|---|---|---|
| 1778103539 | 16.67° C | 99% | 958.4 hPa | - | - | - | - |
| 1778101738 | 17.22° C | 99% | 958 hPa | - | - | - | - |
| 1778099938 | 17.22° C | 99% | 957.8 hPa | - | - | - | - |
| 1778098138 | 17.78° C | 99% | 957.8 hPa | - | - | - | - |
| 1778096338 | 18.33° C | 99% | 957.6 hPa | - | - | - | - |
| 1778094537 | 18.89° C | 99% | 957.8 hPa | - | - | - | - |
| 1778092771 | 18.33° C | 99% | 957.4 hPa | - | - | - | - |
| 1778092737 | 18.33° C | 99% | 957.4 hPa | - | - | - | - |
| 1778090937 | 17.78° C | 99% | 957.8 hPa | - | - | - | - |
| 1778089136 | 17.78° C | 99% | 957.8 hPa | - | - | - | - |
| 1778087340 | 19.44° C | 99% | 957.5 hPa | - | - | - | - |
| 1778085540 | 18.89° C | 99% | 957.3 hPa | - | - | - | - |
| 1778083740 | 20.56° C | 96% | 956.2 hPa | - | - | - | - |
| 1778081939 | 21.11° C | 73% | 956.2 hPa | - | - | - | - |
| 1778080139 | 20.56° C | 73% | 956.2 hPa | - | - | - | - |
| 1778078339 | 18.33° C | 87% | 956.2 hPa | - | - | - | - |
| 1778076539 | 18.33° C | 97% | 956 hPa | - | - | - | - |
| 1778074738 | 18.89° C | 99% | 956.8 hPa | - | - | - | - |
| 1778072938 | 19.44° C | 99% | 956.8 hPa | - | - | - | - |
| 1778071137 | 19.44° C | 99% | 956.8 hPa | - | - | - | - |
| 1778069337 | 14.44° C | 99% | 956.8 hPa | - | - | - | - |
| 1778067536 | 13.89° C | 99% | 956.9 hPa | - | - | - | - |
| 1778065735 | 13.89° C | 99% | 956.1 hPa | - | - | - | - |
| 1778063969 | 14.44° C | 99% | 955.9 hPa | - | - | - | - |
| 1778063935 | 14.44° C | 99% | 955.9 hPa | - | - | - | - |
* Rain since midnight (hover to see other rain measurements)
** Current wind speed in m/s (hover to see current wind gust speed)